Location: Les Gen�tes
(46.3104°N, 1.5969°E)
Time: 19:57:35
(UTC+00:00)

Cosmos 2315 Rocket - Pass Details

Date: 01 June 2020
Orbit: 966 x 1002 km, 82.9° (Epoch: 05 July)

Event Time Altitude Azimuth Distance (km) Brightness Sun altitude
Rises 23:25:54 0° 350° (N) 3,668 8.6 -21.2°
Reaches altitude 10° 23:28:25 10° 350° (N) 2,716 7.5 -21.3°
Maximum altitude 23:34:38 84° 263° (W) 978 3.9 -21.4°
Enters shadow 23:37:00 41° 179° (S) 1,376 4.3 -21.4°
